Location: Unspecified
(0.0000°N, 0.0000°E)
Time: 15:47:06
(UTC+00:00)

FENGYUN 1C DEB - Pass Details

Date: 20 February 2026
Orbit: 814 x 927 km, 98.2° (Epoch: 15 July)

Event Time Altitude Azimuth Distance (km) Brightness Sun altitude
Rises 19:06:10 0° 165° (SSE) 3,402 ? -12.9°
Reaches altitude 10° 19:08:31 10° 163° (SSE) 2,476 ? -13.5°
Maximum altitude 19:14:01 76° 78° (ENE) 887 ? -14.8°
Drops below altitude 10° 19:19:36 10° 353° (N) 2,512 ? -16.2°
Sets 19:22:00 0° 351° (N) 3,455 ? -16.8°
